Date String (YYYY-MM-DD hh:mm:ss) UTC,Instrument flags,Ambient pressure (hPa),Sample flow (lpm),Bypass flow (lpm),Sample temperature (°C),Ambient temperature (°C),ASC tube jacket temperature (°C),LED temperature (°C),Box temperature (°C),Sample RH (%),Span deviation,Mass concentration (μg/m³),Mass concentration (μg/m³),Mass concentration (μg/m³)
DateTimeUTC,F1_M11,P_M11,Q1_M11,Q2_M11,T1_M11,T2_M11,T3_M11,T4_M11,T5_M11,U1_M11,ZSPAN_M11,X0_M11,X2_M11,X1_M11
2022-04-02 12:00:00,,0825.5,4.99,0.00,24.3,23.4,00.0,33.4,26.2,12.9,0000.0,0008.00,0003.78,0003.14
2022-04-02 12:01:00,,0825.8,5.00,0.00,24.4,23.4,00.0,33.4,26.1,12.9,0000.0,0007.74,0003.71,0003.15
2022-04-02 12:02:00,,0825.7,5.01,0.00,24.3,23.4,00.0,33.4,26.1,12.9,0000.0,0007.57,0003.68,0003.15
2022-04-02 12:03:00,,0825.7,5.00,0.00,24.3,23.4,00.0,33.4,26.1,12.9,0000.0,0007.74,0003.67,0003.17
2022-04-02 12:04:00,,0825.7,5.01,0.00,24.3,23.4,00.0,33.3,26.1,12.9,0000.0,0007.41,0003.67,0003.18
2022-04-02 12:05:00,,0825.6,4.98,0.00,24.4,23.4,00.0,33.3,26.1,12.9,0000.0,0007.17,0003.67,0003.18
2022-04-02 12:06:00,,0825.6,5.00,0.00,24.4,23.4,00.0,33.3,26.1,13.0,0000.0,0007.14,0003.64,0003.19
2022-04-02 12:07:00,,0825.7,4.99,0.00,24.3,23.3,00.0,33.3,26.1,13.0,0000.0,0007.34,0003.62,0003.19
2022-04-02 12:08:00,,0825.7,5.01,0.00,24.3,23.3,00.0,33.3,26.1,13.0,0000.0,0007.41,0003.65,0003.20
2022-04-02 12:09:00,,0825.7,5.01,0.00,24.3,23.3,00.0,33.3,26.1,13.0,0000.0,0007.47,0003.67,0003.21
2022-04-02 12:10:00,,0825.8,4.98,0.00,24.3,23.3,00.0,33.3,26.1,13.0,0000.0,0007.79,0003.67,0003.21
2022-04-02 12:11:00,,0825.7,5.00,0.00,24.3,23.3,00.0,33.3,26.1,13.0,0000.0,0008.39,0003.66,0003.21
2022-04-02 12:12:00,,0825.7,5.00,0.00,24.3,23.3,00.0,33.3,26.1,13.0,0000.0,0008.44,0003.67,0003.21
2022-04-02 12:13:00,,0825.7,5.00,0.00,24.3,23.3,00.0,33.3,26.1,13.1,0000.0,0008.31,0003.68,0003.21
2022-04-02 12:14:00,,0825.6,5.00,0.00,24.3,23.3,00.0,33.3,26.1,13.1,0000.0,0008.31,0003.68,0003.22
2022-04-02 12:15:00,,0825.7,5.00,0.00,24.3,23.3,00.0,33.3,26.1,13.1,0000.0,0008.63,0003.69,0003.22
2022-04-02 12:16:00,,0825.7,5.00,0.00,24.3,23.3,00.0,33.3,26.0,13.1,0000.0,0008.96,0003.69,0003.22
2022-04-02 12:17:00,,0825.7,4.99,0.00,24.3,23.3,00.0,33.3,26.0,13.1,0000.0,0008.90,0003.69,0003.24
2022-04-02 12:18:00,,0825.7,5.01,0.00,24.3,23.3,00.0,33.3,26.1,13.1,0000.0,0008.71,0003.68,0003.24
2022-04-02 12:19:00,,0825.7,5.00,0.00,24.3,23.3,00.0,33.3,26.1,13.1,0000.0,0008.67,0003.66,0003.24
2022-04-02 12:20:00,,0825.7,5.00,0.00,24.3,23.3,00.0,33.2,26.0,13.1,0000.0,0008.68,0003.67,0003.25
2022-04-02 12:21:00,,0825.7,5.00,0.00,24.3,23.3,00.0,33.3,26.0,13.1,0000.0,0009.37,0003.70,0003.26
2022-04-02 12:22:00,,0825.7,4.99,0.00,24.3,23.3,00.0,33.3,26.0,13.1,0000.0,0009.31,0003.72,0003.27
2022-04-02 12:23:00,,0825.8,5.01,0.00,24.3,23.3,00.0,33.2,26.0,13.1,0000.0,0009.61,0003.72,0003.27
2022-04-02 12:24:00,,0825.8,5.01,0.00,24.3,23.3,00.0,33.2,26.0,13.1,0000.0,0009.61,0003.73,0003.27
2022-04-02 12:25:00,,0825.8,5.00,0.00,24.3,23.3,00.0,33.2,26.0,13.1,0000.0,0009.50,0003.75,0003.28
2022-04-02 12:26:00,,0825.8,5.00,0.00,24.3,23.3,00.0,33.2,26.1,13.1,0000.0,0009.23,0003.73,0003.28
2022-04-02 12:27:00,,0825.7,5.00,0.00,24.3,23.3,00.0,33.2,26.0,13.1,0000.0,0008.93,0003.78,0003.31
2022-04-02 12:28:00,,0825.7,4.99,0.00,24.3,23.3,00.0,33.2,26.0,13.1,0000.0,0008.96,0003.82,0003.34
2022-04-02 12:29:00,,0825.7,5.00,0.00,24.3,23.3,00.0,33.2,26.1,13.1,0000.0,0009.07,0003.87,0003.36
2022-04-02 12:30:00,,0825.8,5.00,0.00,24.3,23.3,00.0,33.2,26.0,13.1,0000.0,0009.12,0003.88,0003.38
2022-04-02 12:31:00,,0825.8,5.00,0.00,24.3,23.3,00.0,33.2,26.0,13.1,0000.0,0009.22,0003.92,0003.39
2022-04-02 12:32:00,,0825.7,4.99,0.00,24.2,23.3,00.0,33.2,26.0,13.1,0000.0,0008.45,0003.93,0003.41
2022-04-02 12:33:00,,0825.7,5.01,0.00,24.2,23.3,00.0,33.2,26.0,13.1,0000.0,0007.86,0003.95,0003.43
2022-04-02 12:34:00,,0825.7,5.01,0.00,24.2,23.2,00.0,33.2,26.0,13.1,0000.0,0007.47,0003.96,0003.45
2022-04-02 12:35:00,,0825.8,4.98,0.00,24.2,23.2,00.0,33.2,26.0,13.1,0000.0,0007.39,0003.99,0003.48
2022-04-02 12:36:00,,0825.8,5.01,0.00,24.2,23.2,00.0,33.2,26.0,13.1,0000.0,0007.10,0003.99,0003.49
2022-04-02 12:37:00,,0825.7,5.00,0.00,24.2,23.2,00.0,33.2,26.0,13.1,0000.0,0007.17,0004.04,0003.51
2022-04-02 12:38:00,,0825.7,4.99,0.00,24.2,23.2,00.0,33.2,26.0,13.1,0000.0,0007.32,0004.05,0003.52
2022-04-02 12:39:00,,0825.7,4.99,0.00,24.2,23.2,00.0,33.2,26.0,13.1,0000.0,0008.36,0004.04,0003.51
2022-04-02 12:40:00,,0825.8,5.01,0.00,24.2,23.2,00.0,33.2,26.0,13.1,0000.0,0009.20,0004.03,0003.51
2022-04-02 12:41:00,,0825.7,5.00,0.00,24.2,23.2,00.0,33.2,26.0,13.1,0000.0,0009.31,0004.04,0003.51
2022-04-02 12:42:00,,0825.8,5.01,0.00,24.2,23.2,00.0,33.2,26.0,13.2,0000.0,0009.54,0004.05,0003.51
2022-04-02 12:43:00,,0825.8,4.99,0.00,24.2,23.2,00.0,33.2,26.0,13.2,0000.0,0009.55,0004.04,0003.51
2022-04-02 12:44:00,,0825.8,5.00,0.00,24.2,23.2,00.0,33.2,26.0,13.2,0000.0,0009.54,0004.05,0003.51
2022-04-02 12:45:00,,0825.8,5.01,0.00,24.2,23.2,00.0,33.2,26.0,13.2,0000.0,0009.54,0004.03,0003.50
2022-04-02 12:46:00,,0825.7,5.01,0.00,24.2,23.2,00.0,33.2,26.0,13.2,0000.0,0009.66,0004.02,0003.48
2022-04-02 12:47:00,,0825.7,5.01,0.00,24.2,23.2,00.0,33.2,26.0,13.2,0000.0,0010.12,0004.01,0003.47
2022-04-02 12:48:00,,0825.6,4.98,0.00,24.2,23.1,00.0,33.2,26.0,13.2,0000.0,0010.06,0003.99,0003.45
2022-04-02 12:49:00,,0825.6,5.01,0.00,24.1,23.1,00.0,33.1,25.9,13.2,0000.0,0009.79,0003.94,0003.44
2022-04-02 12:50:00,,0825.6,5.01,0.00,24.1,23.1,00.0,33.1,25.9,13.2,0000.0,0008.82,0003.97,0003.43
2022-04-02 12:51:00,,0825.6,5.00,0.00,24.1,23.1,00.0,33.1,25.9,13.2,0000.0,0008.13,0003.97,0003.42
2022-04-02 12:52:00,,0825.7,4.99,0.00,24.1,23.1,00.0,33.1,25.9,13.2,0000.0,0008.19,0003.95,0003.41
2022-04-02 12:53:00,,0825.7,4.99,0.00,24.1,23.1,00.0,33.1,25.9,13.3,0000.0,0007.96,0003.93,0003.40
2022-04-02 12:54:00,,0825.6,5.01,0.00,24.1,23.0,00.0,33.1,25.8,13.3,0000.0,0008.00,0003.93,0003.40
2022-04-02 12:55:00,,0825.6,5.00,0.00,24.1,23.0,00.0,33.1,25.8,13.3,0000.0,0007.99,0003.93,0003.39
2022-04-02 12:56:00,,0825.6,5.00,0.00,24.0,23.0,00.0,33.1,25.8,13.3,0000.0,0008.21,0003.94,0003.39
2022-04-02 12:57:00,,0825.7,4.99,0.00,24.0,23.0,00.0,33.1,25.8,13.3,0000.0,0008.24,0003.95,0003.40
2022-04-02 12:58:00,,0825.7,5.00,0.00,24.0,23.0,00.0,33.0,25.7,13.3,0000.0,0008.08,0003.95,0003.41
2022-04-02 12:59:00,,0825.7,5.01,0.00,24.0,23.0,00.0,33.0,25.7,13.3,0000.0,0008.29,0003.98,0003.41
